Datum;Zeit;Leistung;Tagesertrag
01.01.2019;08:25:00;4;0
01.01.2019;08:35:00;11;0
01.01.2019;08:45:00;19;0
01.01.2019;08:55:00;27;0
01.01.2019;09:05:00;37;0
01.01.2019;09:15:00;56;0
01.01.2019;09:25:00;90;0
01.01.2019;09:35:00;144;0
01.01.2019;09:45:00;197;0
01.01.2019;09:55:00;178;0.1
01.01.2019;10:05:00;75;0.1
01.01.2019;10:15:00;39;0.1
01.01.2019;10:25:00;101;0.1
01.01.2019;10:35:00;136;0.1
01.01.2019;10:45:00;171;0.2
01.01.2019;10:55:00;110;0.2
01.01.2019;11:05:00;112;0.2
01.01.2019;11:15:00;145;0.2
01.01.2019;11:25:00;215;0.3
01.01.2019;11:35:00;247;0.3
01.01.2019;11:45:00;164;0.3
01.01.2019;11:55:00;158;0.4
01.01.2019;12:05:00;172;0.4
01.01.2019;12:15:00;218;0.4
01.01.2019;12:25:00;233;0.5
01.01.2019;12:35:00;307;0.5
01.01.2019;12:45:00;869;0.7
01.01.2019;12:55:00;780;0.8
01.01.2019;13:05:00;867;0.9
01.01.2019;13:15:00;922;1.1
01.01.2019;13:25:00;1091;1.3
01.01.2019;13:35:00;1060;1.5
01.01.2019;13:45:00;231;1.5
01.01.2019;13:55:00;349;1.6
01.01.2019;14:05:00;299;1.6
01.01.2019;14:15:00;344;1.7
01.01.2019;14:25:00;171;1.7
01.01.2019;14:35:00;47;1.7
01.01.2019;14:45:00;43;1.7
01.01.2019;14:55:00;26;1.7
01.01.2019;15:05:00;24;1.8
01.01.2019;15:15:00;15;1.8
01.01.2019;15:25:00;21;1.8
01.01.2019;15:35:00;26;1.8
01.01.2019;15:45:00;10;1.8
01.01.2019;15:55:00;10;1.8
02.01.2019;08:15:00;9;0
02.01.2019;08:25:00;10;0
02.01.2019;08:35:00;20;0
02.01.2019;08:45:00;23;0
02.01.2019;08:55:00;34;0
02.01.2019;09:05:00;46;0
02.01.2019;09:15:00;77;0
02.01.2019;09:25:00;99;0
02.01.2019;09:35:00;129;0
02.01.2019;09:45:00;261;0.1
02.01.2019;09:55:00;247;0.1
02.01.2019;10:05:00;277;0.1
02.01.2019;10:15:00;296;0.2
02.01.2019;10:25:00;306;0.2
02.01.2019;10:35:00;311;0.3
02.01.2019;10:45:00;378;0.4
02.01.2019;10:55:00;571;0.4
02.01.2019;11:05:00;439;0.5
02.01.2019;11:15:00;259;0.6
02.01.2019;11:25:00;403;0.6
02.01.2019;11:35:00;424;0.7
02.01.2019;11:45:00;435;0.8
02.01.2019;11:55:00;384;0.8
02.01.2019;12:05:00;426;0.9
02.01.2019;12:15:00;541;1.0
02.01.2019;12:25:00;655;1.1
02.01.2019;12:35:00;553;1.2
02.01.2019;12:45:00;423;1.3
02.01.2019;12:55:00;610;1.4
02.01.2019;13:05:00;463;1.5
02.01.2019;13:15:00;730;1.6
02.01.2019;13:25:00;897;1.7
02.01.2019;13:35:00;2904;2.2
02.01.2019;13:45:00;2865;2.6
02.01.2019;13:55:00;2672;3.0
02.01.2019;14:05:00;184;3.1
02.01.2019;14:15:00;291;3.1
02.01.2019;14:25:00;470;3.2
02.01.2019;14:35:00;511;3.3
02.01.2019;14:45:00;124;3.3
02.01.2019;14:55:00;149;3.3
02.01.2019;15:05:00;228;3.3
02.01.2019;15:15:00;400;3.4
02.01.2019;15:25:00;657;3.5
02.01.2019;15:35:00;495;3.6
02.01.2019;15:45:00;228;3.7
02.01.2019;15:55:00;79;3.7
02.01.2019;16:05:00;26;3.7
02.01.2019;16:15:00;13;3.7
02.01.2019;16:25:00;15;3.7
03.01.2019;08:15:00;7;0
03.01.2019;08:25:00;16;0
03.01.2019;08:35:00;39;0
03.01.2019;08:45:00;61;0
03.01.2019;08:55:00;143;0
03.01.2019;09:05:00;165;0
03.01.2019;09:15:00;163;0
03.01.2019;09:25:00;291;0.1
03.01.2019;09:35:00;521;0.2
03.01.2019;09:45:00;724;0.3
03.01.2019;09:55:00;1039;0.4
03.01.2019;10:05:00;538;0.5
03.01.2019;10:15:00;872;0.6
03.01.2019;10:25:00;1058;0.8
03.01.2019;10:35:00;1088;1.0
03.01.2019;10:45:00;977;1.2
03.01.2019;10:55:00;2631;1.5
03.01.2019;11:05:00;2952;2.0
03.01.2019;11:15:00;2836;2.5
03.01.2019;11:25:00;3032;3.0
03.01.2019;11:35:00;2879;3.5
03.01.2019;11:45:00;2449;4.0
03.01.2019;11:55:00;2746;4.4
03.01.2019;12:05:00;3040;4.9
03.01.2019;12:15:00;2834;5.4
03.01.2019;12:25:00;3246;6.0
03.01.2019;12:35:00;2961;6.5
03.01.2019;12:45:00;1089;6.7
03.01.2019;12:55:00;775;6.8
03.01.2019;13:05:00;565;6.9
03.01.2019;13:15:00;527;7.0
03.01.2019;13:25:00;501;7.1
03.01.2019;13:35:00;514;7.2
03.01.2019;13:45:00;533;7.3
03.01.2019;13:55:00;526;7.4
03.01.2019;14:05:00;461;7.5
03.01.2019;14:15:00;387;7.5
03.01.2019;14:25:00;344;7.6
03.01.2019;14:35:00;345;7.6
03.01.2019;14:45:00;373;7.7
03.01.2019;14:55:00;307;7.8
03.01.2019;15:05:00;245;7.8
03.01.2019;15:15:00;195;7.8
03.01.2019;15:25:00;138;7.9
03.01.2019;15:35:00;125;7.9
03.01.2019;15:45:00;73;7.9
03.01.2019;15:55:00;102;7.9
03.01.2019;16:05:00;100;7.9
03.01.2019;16:15:00;54;7.9
03.01.2019;16:25:00;31;7.9
03.01.2019;16:35:00;18;7.9
03.01.2019;16:45:00;7;7.9
04.01.2019;08:15:00;11;0
04.01.2019;08:25:00;24;0
04.01.2019;08:35:00;48;0
04.01.2019;08:45:00;61;0
04.01.2019;08:55:00;67;0
04.01.2019;09:05:00;93;0
04.01.2019;09:15:00;234;0
04.01.2019;09:25:00;381;0.1
04.01.2019;09:35:00;624;0.2
04.01.2019;09:45:00;621;0.3
04.01.2019;09:55:00;645;0.4
04.01.2019;10:05:00;629;0.5
04.01.2019;10:15:00;631;0.6
04.01.2019;10:25:00;1208;0.8
04.01.2019;10:35:00;2342;1.1
04.01.2019;10:45:00;1895;1.5
04.01.2019;10:55:00;2214;1.9
04.01.2019;11:05:00;2517;2.3
04.01.2019;11:15:00;2495;2.7
04.01.2019;11:25:00;1949;3.0
04.01.2019;11:35:00;2402;3.4
04.01.2019;11:45:00;2854;3.9
04.01.2019;11:55:00;2893;4.3
04.01.2019;12:05:00;2333;4.8
04.01.2019;12:15:00;2726;5.2
04.01.2019;12:25:00;3055;5.7
04.01.2019;12:35:00;3119;6.2
04.01.2019;12:45:00;3215;6.7
04.01.2019;12:55:00;2757;7.2
04.01.2019;13:05:00;2803;7.7
04.01.2019;13:15:00;3060;8.2
04.01.2019;13:25:00;2507;8.6
04.01.2019;13:35:00;1514;8.9
04.01.2019;13:45:00;1485;9.2
04.01.2019;13:55:00;1667;9.5
04.01.2019;14:05:00;867;9.6
04.01.2019;14:15:00;580;9.7
04.01.2019;14:25:00;558;9.8
04.01.2019;14:35:00;614;9.9
04.01.2019;14:45:00;619;10.0
04.01.2019;14:55:00;490;10.1
04.01.2019;15:05:00;561;10.2
04.01.2019;15:15:00;408;10.3
04.01.2019;15:25:00;379;10.3
04.01.2019;15:35:00;412;10.4
04.01.2019;15:45:00;207;10.5
04.01.2019;15:55:00;161;10.5
04.01.2019;16:05:00;137;10.5
04.01.2019;16:15:00;75;10.5
04.01.2019;16:25:00;36;10.5
04.01.2019;16:35:00;22;10.5
04.01.2019;16:45:00;6;10.5
05.01.2019;08:45:00;10;0
05.01.2019;08:55:00;10;0
05.01.2019;09:05:00;17;0
05.01.2019;09:15:00;17;0
05.01.2019;09:25:00;18;0
05.01.2019;09:35:00;16;0
05.01.2019;09:45:00;14;0
05.01.2019;09:55:00;16;0
05.01.2019;10:05:00;14;0
05.01.2019;10:15:00;13;0
05.01.2019;10:25:00;19;0
05.01.2019;10:35:00;21;0
05.01.2019;10:45:00;18;0
05.01.2019;10:55:00;21;0
05.01.2019;11:05:00;19;0
05.01.2019;11:15:00;17;0
05.01.2019;11:25:00;17;0
05.01.2019;11:35:00;14;0
05.01.2019;11:45:00;11;0
05.01.2019;11:55:00;11;0
05.01.2019;12:05:00;12;0
05.01.2019;12:15:00;11;0
05.01.2019;12:25:00;11;0
05.01.2019;12:35:00;11;0
05.01.2019;12:45:00;11;0
05.01.2019;12:55:00;11;0
05.01.2019;13:05:00;11;0
05.01.2019;13:15:00;11;0
06.01.2019;09:55:00;1;0
06.01.2019;10:05:00;10;0
06.01.2019;10:15:00;9;0
06.01.2019;10:25:00;13;0
06.01.2019;10:35:00;15;0
06.01.2019;10:45:00;19;0
06.01.2019;10:55:00;20;0
06.01.2019;11:05:00;20;0
06.01.2019;11:15:00;25;0
06.01.2019;11:25:00;27;0
06.01.2019;11:35:00;23;0
06.01.2019;11:45:00;27;0
06.01.2019;11:55:00;33;0
06.01.2019;12:05:00;26;0
06.01.2019;12:15:00;24;0
06.01.2019;12:25:00;35;0
06.01.2019;12:35:00;37;0
06.01.2019;12:45:00;36;0
06.01.2019;12:55:00;33;0
06.01.2019;13:05:00;40;0.1
06.01.2019;13:15:00;36;0.1
06.01.2019;13:25:00;41;0.1
06.01.2019;13:35:00;41;0.1
06.01.2019;13:45:00;49;0.1
06.01.2019;13:55:00;35;0.1
06.01.2019;14:05:00;37;0.1
06.01.2019;14:15:00;45;0.1
06.01.2019;14:25:00;40;0.1
06.01.2019;14:35:00;32;0.1
06.01.2019;14:45:00;29;0.1
06.01.2019;14:55:00;24;0.1
06.01.2019;15:05:00;22;0.1
06.01.2019;15:15:00;21;0.1
06.01.2019;15:25:00;24;0.1
06.01.2019;15:35:00;30;0.1
06.01.2019;15:45:00;28;0.1
06.01.2019;15:55:00;30;0.2
06.01.2019;16:05:00;25;0.2
06.01.2019;16:15:00;20;0.2
06.01.2019;16:25:00;12;0.2
07.01.2019;08:45:00;11;0
07.01.2019;08:55:00;16;0
07.01.2019;09:05:00;30;0
07.01.2019;09:15:00;38;0
07.01.2019;09:25:00;50;0
07.01.2019;09:35:00;44;0
07.01.2019;09:45:00;100;0
07.01.2019;09:55:00;139;0
07.01.2019;10:05:00;137;0
07.01.2019;10:15:00;159;0.1
07.01.2019;10:25:00;110;0.1
07.01.2019;10:35:00;137;0.1
07.01.2019;10:45:00;328;0.2
07.01.2019;10:55:00;474;0.2
07.01.2019;11:05:00;317;0.3
07.01.2019;11:15:00;357;0.4
07.01.2019;11:25:00;465;0.4
07.01.2019;11:35:00;413;0.5
07.01.2019;11:45:00;284;0.5
07.01.2019;11:55:00;283;0.6
07.01.2019;12:05:00;319;0.6
07.01.2019;12:15:00;228;0.7
07.01.2019;12:25:00;157;0.7
07.01.2019;12:35:00;226;0.7
07.01.2019;12:45:00;269;0.8
07.01.2019;12:55:00;262;0.8
07.01.2019;13:05:00;269;0.9
07.01.2019;13:15:00;235;0.9
07.01.2019;13:25:00;164;1.0
07.01.2019;13:35:00;90;1.0
07.01.2019;13:45:00;79;1.0
07.01.2019;13:55:00;60;1.0
07.01.2019;14:05:00;65;1.0
07.01.2019;14:15:00;65;1.0
07.01.2019;14:25:00;60;1.0
07.01.2019;14:35:00;57;1.0
07.01.2019;14:45:00;46;1.0
07.01.2019;14:55:00;43;1.1
07.01.2019;15:05:00;43;1.1
07.01.2019;15:15:00;44;1.1
07.01.2019;15:25:00;39;1.1
07.01.2019;15:35:00;50;1.1
07.01.2019;15:45:00;57;1.1
07.01.2019;15:55:00;56;1.1
07.01.2019;16:05:00;47;1.1
07.01.2019;16:15:00;35;1.1
07.01.2019;16:25:00;25;1.1
07.01.2019;16:35:00;20;1.1
07.01.2019;16:45:00;3;1.1
08.01.2019;08:50:00;8;0
08.01.2019;09:00:00;14;0
08.01.2019;09:10:00;17;0
08.01.2019;09:20:00;24;0
08.01.2019;09:30:00;25;0
08.01.2019;09:40:00;30;0
08.01.2019;09:50:00;38;0
08.01.2019;10:00:00;60;0
08.01.2019;10:10:00;75;0
08.01.2019;10:20:00;123;0
08.01.2019;10:30:00;78;0
08.01.2019;10:40:00;195;0.1
08.01.2019;10:50:00;132;0.1
08.01.2019;11:00:00;133;0.1
08.01.2019;11:20:00;223;0.2
08.01.2019;11:30:00;211;0.2
08.01.2019;11:40:00;275;0.2
08.01.2019;11:50:00;455;0.3
08.01.2019;12:00:00;126;0.3
08.01.2019;12:10:00;317;0.4
08.01.2019;12:20:00;306;0.5
08.01.2019;12:30:00;372;0.5
08.01.2019;12:40:00;252;0.6
08.01.2019;12:50:00;249;0.6
08.01.2019;13:00:00;152;0.6
08.01.2019;13:10:00;402;0.7
08.01.2019;13:20:00;266;0.7
08.01.2019;13:30:00;261;0.8
08.01.2019;13:40:00;507;0.9
08.01.2019;13:50:00;395;0.9
08.01.2019;14:00:00;686;1.0
08.01.2019;14:10:00;147;1.1
08.01.2019;14:20:00;39;1.1
08.01.2019;14:30:00;88;1.1
08.01.2019;14:40:00;98;1.1
08.01.2019;14:50:00;71;1.1
08.01.2019;15:00:00;152;1.2
08.01.2019;15:10:00;180;1.2
08.01.2019;15:20:00;122;1.2
08.01.2019;15:30:00;297;1.3
08.01.2019;15:40:00;174;1.3
08.01.2019;15:50:00;85;1.3
08.01.2019;16:00:00;75;1.3
08.01.2019;16:10:00;63;1.3
08.01.2019;16:20:00;126;1.3
08.01.2019;16:30:00;54;1.4
08.01.2019;16:40:00;18;1.4
09.01.2019;08:40:00;4;0
09.01.2019;08:50:00;11;0
09.01.2019;09:00:00;15;0
09.01.2019;09:10:00;23;0
09.01.2019;09:20:00;30;0
09.01.2019;09:30:00;27;0
09.01.2019;09:40:00;22;0
09.01.2019;09:50:00;25;0
09.01.2019;10:00:00;42;0
09.01.2019;10:10:00;44;0
09.01.2019;10:20:00;44;0
09.01.2019;10:30:00;137;0
09.01.2019;10:40:00;69;0
09.01.2019;10:50:00;75;0
09.01.2019;11:00:00;37;0.1
09.01.2019;11:10:00;51;0.1
09.01.2019;11:20:00;50;0.1
09.01.2019;11:30:00;66;0.1
09.01.2019;11:40:00;43;0.1
09.01.2019;11:50:00;90;0.1
09.01.2019;12:00:00;88;0.1
09.01.2019;12:10:00;98;0.1
09.01.2019;12:20:00;129;0.2
09.01.2019;12:30:00;100;0.2
09.01.2019;12:40:00;49;0.2
09.01.2019;12:50:00;16;0.2
09.01.2019;13:00:00;87;0.2
09.01.2019;13:10:00;103;0.2
09.01.2019;13:20:00;104;0.2
09.01.2019;13:30:00;93;0.2
09.01.2019;13:40:00;112;0.3
09.01.2019;13:50:00;108;0.3
09.01.2019;14:00:00;81;0.3
09.01.2019;14:10:00;69;0.3
09.01.2019;14:20:00;59;0.3
09.01.2019;14:30:00;49;0.3
09.01.2019;14:40:00;23;0.3
09.01.2019;14:50:00;17;0.3
09.01.2019;15:00:00;8;0.3
09.01.2019;15:10:00;6;0.3
09.01.2019;15:20:00;22;0.3
09.01.2019;15:30:00;22;0.3
09.01.2019;15:40:00;20;0.4
09.01.2019;15:50:00;14;0.4
09.01.2019;16:00:00;11;0.4
10.01.2019;11:35:00;10;0
10.01.2019;11:45:00;10;0
10.01.2019;11:55:00;4;0
10.01.2019;12:25:00;10;0
10.01.2019;12:35:00;10;0
10.01.2019;12:45:00;10;0
10.01.2019;12:55:00;9;0
10.01.2019;13:05:00;10;0
10.01.2019;13:15:00;3;0
11.01.2019;10:45:00;1;0
11.01.2019;10:55:00;5;0
11.01.2019;11:05:00;3;0
11.01.2019;11:15:00;12;0
11.01.2019;11:25:00;8;0
11.01.2019;11:35:00;15;0
11.01.2019;11:45:00;15;0
11.01.2019;11:55:00;17;0
11.01.2019;12:05:00;14;0
11.01.2019;12:15:00;10;0
11.01.2019;12:25:00;11;0
11.01.2019;12:35:00;18;0
11.01.2019;12:45:00;18;0
11.01.2019;12:55:00;22;0
11.01.2019;13:05:00;21;0
11.01.2019;13:15:00;20;0
11.01.2019;13:25:00;12;0
12.01.2019;12:55:00;1;0
12.01.2019;13:05:00;11;0
12.01.2019;13:15:00;10;0
12.01.2019;13:25:00;8;0
12.01.2019;13:45:00;1;0
12.01.2019;14:35:00;3;0
12.01.2019;14:45:00;2;0
13.01.2019;08:25:00;2;0
13.01.2019;08:35:00;12;0
13.01.2019;08:45:00;14;0
13.01.2019;08:55:00;16;0
13.01.2019;09:05:00;16;0
13.01.2019;09:15:00;21;0
13.01.2019;09:35:00;26;0
13.01.2019;09:45:00;26;0
13.01.2019;09:55:00;38;0
13.01.2019;10:05:00;40;0
13.01.2019;10:15:00;49;0
13.01.2019;10:25:00;62;0
13.01.2019;10:35:00;60;0
13.01.2019;10:45:00;59;0
13.01.2019;10:55:00;69;0
13.01.2019;11:05:00;69;0.1
13.01.2019;11:15:00;45;0.1
13.01.2019;11:25:00;38;0.1
13.01.2019;11:35:00;41;0.1
13.01.2019;11:45:00;41;0.1
13.01.2019;11:55:00;35;0.1
13.01.2019;12:05:00;36;0.1
13.01.2019;12:15:00;37;0.1
13.01.2019;12:25:00;49;0.1
13.01.2019;12:35:00;59;0.1
13.01.2019;12:45:00;47;0.1
13.01.2019;12:55:00;59;0.1
13.01.2019;13:05:00;55;0.1
13.01.2019;13:15:00;61;0.2
13.01.2019;13:25:00;57;0.2
13.01.2019;13:35:00;58;0.2
13.01.2019;13:45:00;45;0.2
13.01.2019;13:55:00;73;0.2
13.01.2019;14:05:00;113;0.2
13.01.2019;14:15:00;97;0.2
13.01.2019;14:25:00;115;0.2
13.01.2019;14:35:00;75;0.3
13.01.2019;14:45:00;41;0.3
13.01.2019;14:55:00;50;0.3
13.01.2019;15:05:00;53;0.3
13.01.2019;15:15:00;34;0.3
13.01.2019;15:25:00;40;0.3
13.01.2019;15:35:00;42;0.3
13.01.2019;15:45:00;24;0.3
13.01.2019;15:55:00;20;0.3
13.01.2019;16:05:00;20;0.3
13.01.2019;16:15:00;13;0.3
13.01.2019;16:25:00;7;0.3
14.01.2019;08:15:00;11;0
14.01.2019;08:25:00;13;0
14.01.2019;08:35:00;25;0
14.01.2019;08:45:00;21;0
14.01.2019;08:55:00;34;0
14.01.2019;09:05:00;133;0
14.01.2019;09:15:00;83;0
14.01.2019;09:25:00;51;0
14.01.2019;09:35:00;99;0
14.01.2019;09:45:00;63;0
14.01.2019;09:55:00;72;0.1
14.01.2019;10:05:00;483;0.1
14.01.2019;10:15:00;116;0.1
14.01.2019;10:25:00;472;0.2
14.01.2019;10:35:00;1543;0.5
14.01.2019;10:45:00;1807;0.8
14.01.2019;10:55:00;220;0.9
14.01.2019;11:05:00;210;0.9
14.01.2019;11:15:00;120;0.9
14.01.2019;11:25:00;327;1.0
14.01.2019;11:35:00;559;1.0
14.01.2019;11:45:00;1430;1.3
14.01.2019;11:55:00;2641;1.6
14.01.2019;12:05:00;1035;1.8
14.01.2019;12:15:00;731;1.9
14.01.2019;12:25:00;2185;2.1
14.01.2019;12:35:00;1511;2.5
14.01.2019;12:45:00;1075;2.7
14.01.2019;12:55:00;759;2.8
14.01.2019;13:05:00;934;3.0
14.01.2019;13:15:00;227;3.0
14.01.2019;13:25:00;729;3.1
14.01.2019;13:35:00;568;3.2
14.01.2019;13:45:00;189;3.3
14.01.2019;13:55:00;461;3.4
14.01.2019;14:05:00;135;3.4
14.01.2019;14:15:00;195;3.4
14.01.2019;14:25:00;76;3.4
14.01.2019;14:35:00;57;3.4
14.01.2019;14:45:00;442;3.5
14.01.2019;14:55:00;347;3.6
14.01.2019;15:05:00;374;3.6
14.01.2019;15:15:00;328;3.7
14.01.2019;15:25:00;231;3.7
14.01.2019;15:35:00;169;3.8
14.01.2019;15:45:00;66;3.8
14.01.2019;15:55:00;118;3.8
14.01.2019;16:05:00;88;3.8
14.01.2019;16:15:00;66;3.8
14.01.2019;16:25:00;62;3.8
14.01.2019;16:35:00;21;3.8
14.01.2019;16:45:00;27;3.8
14.01.2019;16:55:00;13;3.8
15.01.2019;08:35:00;12;0
15.01.2019;08:45:00;22;0
15.01.2019;08:55:00;34;0
15.01.2019;09:05:00;60;0
15.01.2019;09:15:00;89;0
15.01.2019;09:25:00;132;0
15.01.2019;09:35:00;162;0
15.01.2019;09:45:00;223;0.1
15.01.2019;09:55:00;304;0.1
15.01.2019;10:05:00;387;0.2
15.01.2019;10:15:00;627;0.3
15.01.2019;10:25:00;683;0.4
15.01.2019;10:35:00;2182;0.7
15.01.2019;10:45:00;2682;1.1
15.01.2019;10:55:00;2932;1.6
15.01.2019;11:05:00;2958;2.1
15.01.2019;11:15:00;2914;2.6
15.01.2019;11:25:00;3038;3.1
15.01.2019;11:35:00;3157;3.6
15.01.2019;11:45:00;3335;4.1
15.01.2019;11:55:00;3185;4.7
15.01.2019;12:05:00;1985;5.1
15.01.2019;12:15:00;3370;5.6
15.01.2019;12:25:00;3042;6.1
15.01.2019;12:35:00;3695;6.6
15.01.2019;12:45:00;2516;7.2
15.01.2019;12:55:00;620;7.3
15.01.2019;13:05:00;529;7.4
15.01.2019;13:15:00;372;7.5
15.01.2019;13:25:00;1108;7.6
15.01.2019;13:35:00;3154;8.1
15.01.2019;13:45:00;3054;8.7
15.01.2019;13:55:00;2993;9.2
15.01.2019;14:05:00;2805;9.6
15.01.2019;14:15:00;2482;10.1
15.01.2019;14:25:00;2553;10.5
15.01.2019;14:35:00;2273;10.9
15.01.2019;14:45:00;2136;11.2
15.01.2019;14:55:00;1959;11.6
15.01.2019;15:05:00;2096;11.9
15.01.2019;15:15:00;1751;12.2
15.01.2019;15:25:00;1534;12.5
15.01.2019;15:35:00;648;12.6
15.01.2019;15:45:00;614;12.7
15.01.2019;15:55:00;801;12.9
15.01.2019;16:05:00;389;13.0
15.01.2019;16:15:00;279;13.0
15.01.2019;16:25:00;102;13.0
15.01.2019;16:35:00;85;13.0
15.01.2019;16:45:00;55;13.1
15.01.2019;16:55:00;33;13.1
15.01.2019;17:05:00;18;13.1
16.01.2019;08:05:00;5;0
16.01.2019;08:15:00;16;0
16.01.2019;08:25:00;36;0
16.01.2019;08:35:00;71;0
16.01.2019;08:45:00;126;0
16.01.2019;08:55:00;273;0
16.01.2019;09:05:00;519;0.1
16.01.2019;09:15:00;602;0.2
16.01.2019;09:25:00;904;0.3
16.01.2019;09:35:00;892;0.5
16.01.2019;09:45:00;1180;0.7
16.01.2019;09:55:00;1413;0.9
16.01.2019;10:05:00;1702;1.2
16.01.2019;10:15:00;2158;1.5
16.01.2019;10:25:00;2551;1.9
16.01.2019;10:35:00;2643;2.4
16.01.2019;10:45:00;2828;2.8
16.01.2019;10:55:00;3013;3.3
16.01.2019;11:05:00;3020;3.8
16.01.2019;11:15:00;3068;4.3
16.01.2019;11:25:00;3070;4.8
16.01.2019;11:35:00;2995;5.3
16.01.2019;11:45:00;2940;5.8
16.01.2019;11:55:00;3460;6.4
16.01.2019;12:05:00;3235;6.9
16.01.2019;12:15:00;3041;7.5
16.01.2019;12:25:00;3067;8.0
16.01.2019;12:35:00;2867;8.5
16.01.2019;12:45:00;3376;9.0
16.01.2019;12:55:00;3375;9.6
16.01.2019;13:05:00;3301;10.2
16.01.2019;13:15:00;3090;10.7
16.01.2019;13:25:00;3107;11.2
16.01.2019;13:35:00;2850;11.7
16.01.2019;13:45:00;2803;12.2
16.01.2019;13:55:00;2207;12.6
16.01.2019;14:05:00;1857;12.8
16.01.2019;14:15:00;2090;13.2
16.01.2019;14:25:00;2270;13.6
16.01.2019;14:35:00;1355;13.9
16.01.2019;14:45:00;2150;14.2
16.01.2019;14:55:00;2021;14.6
16.01.2019;15:05:00;1782;14.9
16.01.2019;15:15:00;1530;15.1
16.01.2019;15:25:00;1497;15.4
16.01.2019;15:35:00;1146;15.6
16.01.2019;15:45:00;988;15.8
16.01.2019;15:55:00;814;15.9
16.01.2019;16:05:00;639;16.1
16.01.2019;16:15:00;310;16.1
16.01.2019;16:25:00;123;16.1
16.01.2019;16:35:00;98;16.2
16.01.2019;16:45:00;63;16.2
16.01.2019;16:55:00;32;16.2
16.01.2019;17:05:00;17;16.2
17.01.2019;08:15:00;9;0
17.01.2019;08:25:00;19;0
17.01.2019;08:35:00;27;0
17.01.2019;08:45:00;44;0
17.01.2019;08:55:00;57;0
17.01.2019;09:05:00;75;0
17.01.2019;09:15:00;74;0
17.01.2019;09:25:00;106;0
17.01.2019;09:35:00;140;0
17.01.2019;09:45:00;229;0.1
17.01.2019;09:55:00;307;0.1
17.01.2019;10:05:00;662;0.2
17.01.2019;10:15:00;708;0.3
17.01.2019;10:25:00;293;0.4
17.01.2019;10:35:00;391;0.4
17.01.2019;10:45:00;680;0.5
17.01.2019;10:55:00;335;0.6
17.01.2019;11:05:00;266;0.6
17.01.2019;11:15:00;145;0.7
17.01.2019;11:25:00;209;0.7
17.01.2019;11:35:00;237;0.7
17.01.2019;11:45:00;298;0.8
17.01.2019;11:55:00;161;0.8
17.01.2019;12:05:00;111;0.8
17.01.2019;12:15:00;74;0.9
17.01.2019;12:25:00;78;0.9
17.01.2019;12:35:00;81;0.9
17.01.2019;12:45:00;48;0.9
17.01.2019;12:55:00;59;0.9
17.01.2019;13:05:00;55;0.9
17.01.2019;13:15:00;105;0.9
17.01.2019;13:25:00;166;1.0
17.01.2019;13:35:00;297;1.0
17.01.2019;13:45:00;405;1.1
17.01.2019;13:55:00;306;1.1
17.01.2019;14:05:00;362;1.2
17.01.2019;14:15:00;291;1.2
17.01.2019;14:25:00;257;1.3
17.01.2019;14:35:00;239;1.3
17.01.2019;14:45:00;202;1.3
17.01.2019;14:55:00;121;1.4
17.01.2019;15:05:00;118;1.4
17.01.2019;15:15:00;106;1.4
17.01.2019;15:25:00;56;1.4
17.01.2019;15:35:00;51;1.4
17.01.2019;15:45:00;29;1.4
17.01.2019;15:55:00;37;1.4
17.01.2019;16:05:00;26;1.4
17.01.2019;16:15:00;27;1.4
17.01.2019;16:25:00;38;1.4
17.01.2019;16:35:00;24;1.5
17.01.2019;16:45:00;17;1.5
17.01.2019;16:55:00;6;1.5
18.01.2019;08:35:00;12;0
18.01.2019;08:45:00;32;0
18.01.2019;08:55:00;59;0
18.01.2019;09:05:00;139;0
18.01.2019;09:15:00;179;0
18.01.2019;09:25:00;205;0.1
18.01.2019;09:35:00;69;0.1
18.01.2019;09:45:00;327;0.1
18.01.2019;09:55:00;390;0.2
18.01.2019;10:05:00;564;0.3
18.01.2019;10:15:00;170;0.3
18.01.2019;10:25:00;93;0.3
18.01.2019;10:35:00;165;0.3
18.01.2019;10:45:00;441;0.4
18.01.2019;10:55:00;412;0.5
18.01.2019;11:05:00;362;0.5
18.01.2019;11:15:00;525;0.6
18.01.2019;11:25:00;357;0.7
18.01.2019;11:35:00;733;0.8
18.01.2019;11:45:00;535;0.9
18.01.2019;11:55:00;320;1.0
18.01.2019;12:05:00;1457;1.3
18.01.2019;12:15:00;1597;1.5
18.01.2019;12:25:00;1924;1.8
18.01.2019;12:35:00;2571;2.2
18.01.2019;12:45:00;3405;2.7
18.01.2019;12:55:00;3258;3.3
18.01.2019;13:05:00;3463;3.9
18.01.2019;13:15:00;3418;4.4
18.01.2019;13:25:00;3407;5.0
18.01.2019;13:35:00;3097;5.5
18.01.2019;13:45:00;3132;6.1
18.01.2019;13:55:00;2625;6.5
18.01.2019;14:05:00;2922;6.9
18.01.2019;14:15:00;2729;7.4
18.01.2019;14:25:00;2571;7.8
18.01.2019;14:35:00;982;8.1
18.01.2019;14:45:00;1888;8.4
18.01.2019;14:55:00;1412;8.7
18.01.2019;15:05:00;698;8.8
18.01.2019;15:15:00;1698;9.1
18.01.2019;15:25:00;1500;9.3
18.01.2019;15:35:00;1285;9.6
18.01.2019;15:45:00;777;9.7
18.01.2019;15:55:00;522;9.8
18.01.2019;16:05:00;350;9.9
18.01.2019;16:15:00;205;9.9
18.01.2019;16:25:00;138;10.0
18.01.2019;16:35:00;97;10.0
18.01.2019;16:45:00;58;10.0
18.01.2019;16:55:00;32;10.0
18.01.2019;17:05:00;11;10.0
19.01.2019;08:10:00;8;0
19.01.2019;08:20:00;21;0
19.01.2019;08:30:00;55;0
19.01.2019;08:40:00;106;0
19.01.2019;08:50:00;208;0
19.01.2019;09:00:00;456;0.1
19.01.2019;09:10:00;547;0.1
19.01.2019;09:20:00;603;0.2
19.01.2019;09:30:00;775;0.4
19.01.2019;09:40:00;849;0.5
19.01.2019;09:50:00;1122;0.7
19.01.2019;10:00:00;907;0.8
19.01.2019;10:10:00;609;1.0
19.01.2019;10:20:00;739;1.1
19.01.2019;10:30:00;1548;1.3
19.01.2019;10:40:00;2985;1.7
19.01.2019;10:50:00;3266;2.3
19.01.2019;11:00:00;2910;2.8
19.01.2019;11:10:00;2996;3.3
19.01.2019;11:20:00;2647;3.7
19.01.2019;11:30:00;2771;4.2
19.01.2019;11:40:00;2433;4.6
19.01.2019;11:50:00;2316;5.0
19.01.2019;12:00:00;2416;5.4
19.01.2019;12:10:00;2787;5.8
19.01.2019;12:20:00;2950;6.3
19.01.2019;12:30:00;3276;6.8
19.01.2019;12:40:00;3317;7.4
19.01.2019;12:50:00;3144;7.9
19.01.2019;13:00:00;3159;8.4
19.01.2019;13:10:00;3262;9.0
19.01.2019;13:20:00;3045;9.5
19.01.2019;13:30:00;3002;10.0
19.01.2019;13:40:00;2934;10.5
19.01.2019;13:50:00;2794;11.0
19.01.2019;14:00:00;2833;11.4
19.01.2019;14:10:00;2653;11.9
19.01.2019;14:20:00;2583;12.3
19.01.2019;14:30:00;2437;12.7
19.01.2019;14:40:00;2155;13.1
19.01.2019;14:50:00;2137;13.5
19.01.2019;15:00:00;1960;13.8
19.01.2019;15:10:00;1829;14.1
19.01.2019;15:20:00;1655;14.4
19.01.2019;15:30:00;1413;14.6
19.01.2019;15:40:00;1027;14.8
19.01.2019;15:50:00;841;15.0
19.01.2019;16:00:00;677;15.1
19.01.2019;16:10:00;422;15.2
19.01.2019;16:20:00;254;15.2
19.01.2019;16:30:00;89;15.3
19.01.2019;16:40:00;57;15.3
19.01.2019;16:50:00;27;15.3
19.01.2019;17:00:00;17;15.3
19.01.2019;17:10:00;1;15.3
20.01.2019;08:05:00;5;0
20.01.2019;08:40:00;169;0
20.01.2019;08:50:00;252;0
20.01.2019;09:00:00;277;0.1
20.01.2019;09:10:00;407;0.1
20.01.2019;09:20:00;425;0.2
20.01.2019;09:30:00;604;0.3
20.01.2019;09:40:00;735;0.4
20.01.2019;09:50:00;1243;0.6
20.01.2019;10:00:00;1404;0.8
20.01.2019;10:10:00;1587;1.1
20.01.2019;10:20:00;1775;1.3
20.01.2019;10:30:00;2281;1.7
20.01.2019;10:40:00;2433;2.1
20.01.2019;10:50:00;2506;2.5
20.01.2019;11:00:00;904;2.7
20.01.2019;11:10:00;944;2.9
20.01.2019;11:20:00;1474;3.1
20.01.2019;11:30:00;1070;3.3
20.01.2019;11:40:00;936;3.5
20.01.2019;11:50:00;1320;3.6
20.01.2019;12:00:00;1806;3.9
20.01.2019;12:10:00;993;4.1
21.01.2019;08:20:00;11;0
21.01.2019;08:30:00;21;0
21.01.2019;08:40:00;47;0
21.01.2019;08:50:00;97;0
21.01.2019;09:00:00;121;0
21.01.2019;09:10:00;137;0
21.01.2019;09:20:00;130;0
21.01.2019;09:30:00;141;0.1
21.01.2019;09:40:00;264;0.1
21.01.2019;09:50:00;333;0.2
21.01.2019;10:00:00;334;0.2
21.01.2019;10:10:00;446;0.3